Flag for U.S.A. Weather past 2 weeks in Aliso Viejo, California, U.S.A.

Now
61 °F

Clear.


Feels Like: 61 °F
Forecast: 52 / 72 °F
Wind: 6 mph from South

Location: John Wayne Airport-Orange County Airport

Current Time: Jan 31, 2015 at 10:26:57 PM

Latest Report: Jan 31, 2015 at 9:53 PM


Visibility: 10 mi

Pressure: 29.98 "Hg

Humidity: 75%

Dew point: 53 °F

Location of Aliso ViejoLocation

Historic Weather in Aliso Viejo — Graph

°F

Aliso Viejo temperature yesterday

Maximum temperature yesterday: 69 °F (at 11:53 AM)
Minimum temperature yesterday: 63 °F (at 6:53 PM)
Average temperature yesterday: 65 °F

Past Weeks' High & Low Weather Summary

 TemperatureHumidityPressure
High84 °F (Jan 25, 12:53 PM)90% (Jan 20, 1:53 AM)30.24 "Hg (Jan 20, 1:53 AM)
Low49 °F (Jan 23, 6:53 AM)5% (Jan 23, 1:53 PM)29.83 "Hg (Jan 31, 3:53 AM)
Average64 °F54%30.06 "Hg
* Reported Jan 16 8:53 PM — Jan 31 8:53 PM, Aliso Viejo, Weather by CustomWeather, © 2014

Note: Actual official high and low records may vary slightly from our data, if they occured in-between our weather recording intervals... More about our weather records

Advertising

Aliso Viejo weather history for previous 24 hours

 ConditionsComfort  
Time TempWeatherWind HumidityBarometerVisibility
8:53 PM
Jan 31
62 °FClear.No wind75%29.97 "Hg10 mi
7:53 PM63 °FClear.3 mph75%29.95 "Hg10 mi
6:53 PM64 °FClear.No wind73%29.93 "Hg10 mi
5:53 PM64 °FPassing clouds.No wind73%29.92 "Hg10 mi
4:53 PM66 °FScattered clouds.7 mph63%29.89 "Hg10 mi
3:53 PM68 °FScattered clouds.9 mph55%29.88 "Hg10 mi
2:53 PM68 °FScattered clouds.6 mph57%29.89 "Hg10 mi
1:53 PM68 °FScattered clouds.7 mph57%29.88 "Hg10 mi
12:53 PM69 °FScattered clouds.10 mph57%29.88 "Hg10 mi
11:53 AM69 °FScattered clouds.6 mph57%29.90 "Hg10 mi
10:53 AM67 °FPassing clouds.No wind59%29.92 "Hg10 mi
9:53 AM64 °FPartly sunny.No wind68%29.92 "Hg10 mi
8:53 AM63 °FOvercast.No wind73%29.91 "Hg10 mi
7:53 AM61 °FMostly cloudy.No wind72%29.88 "Hg10 mi
6:53 AM59 °FOvercast.5 mph75%29.87 "Hg10 mi
5:53 AM58 °FClear.No wind78%29.86 "Hg10 mi
4:53 AM59 °FPassing clouds.3 mph78%29.83 "Hg10 mi
4:03 AM61 °FPassing clouds.3 mph72%29.83 "Hg10 mi
3:53 AM60 °FPassing clouds.5 mph78%29.83 "Hg10 mi
2:53 AM60 °FClear.No wind78%29.85 "Hg10 mi
1:53 AM60 °FClear.No wind80%29.85 "Hg10 mi
12:53 AM61 °FPassing clouds.3 mph78%29.86 "Hg10 mi
11:53 PM
Jan 30
63 °FMostly cloudy.3 mph75%29.87 "Hg10 mi
10:53 PM63 °FOvercast.3 mph75%29.87 "Hg10 mi
Weather by CustomWeather, © 2014

See weather overviewHow to use our weather pages